Regional Weather Roundup
Issued by NWS Upton, NY

Current Version | Previous Version | Text Only | Print | Product List | Glossary On
Versions: 1 2 3 4 5 6 7 8 9 10 11 12 13 14 15 16 17 18 19 20 21 22 23 24 25 26 27 28 29 30 31 32 33 34 35 36 37 38 39 40 41 42 43 44 45 46 47 48 49 50
000 ASUS41 KOKX 242005 RWROKX REGIONAL WEATHER ROUNDUP NATIONAL WEATHER SERVICE NEW YORK NY 300 PM EST SAT JAN 24 2015 NOTE: "FAIR" INDICATES FEW OR NO CLOUDS BELOW 12,000 FEET WITH NO SIGNIFICANT WEATHER AND/OR OBSTRUCTIONS TO VISIBILITY. NYZ071-072-176-178-NJZ106-104-242100- NEW YORK CITY METRO AREA CITY SKY/WX TMP DP RH WIND PRES REMARKS CENTRAL PARK CLOUDY 37 32 82 VRB3 29.30F LAGUARDIA APRT CLOUDY 37 32 82 N14 29.28F WCI 28 KENNEDY INTL CLOUDY 37 32 82 N13 29.28F WCI 29 NEWARK/LIBERTY LGT RAIN 37 33 85 N15G24 29.29F WCI 28 BRNX BOT. GARD N/A 36 32 87 W3 29.27F TETERBORO CLOUDY 37 32 82 NW9G23 29.28F WCI 30 $$ NYZ177-179-078>081-242100- LONG ISLAND NEW YORK CITY SKY/WX TMP DP RH WIND PRES REMARKS FARMINGDALE CLOUDY 36 33 89 N13G20 29.26F WCI 27 ISLIP DRIZZLE 35 33 92 N15 29.22F FOG WCI 25 SHIRLEY CLOUDY 35 33 92 N13 29.23F FOG WCI 26 WESTHAMPTON CLOUDY 36 34 92 N13 29.22F FOG WCI 27 MONTAUK POINT N/A 38 35 89 N13G24 29.19F WCI 30 $$ NYZ052-065-067-242100- HUDSON VALLEY CITY SKY/WX TMP DP RH WIND PRES REMARKS WHITE PLAINS CLOUDY 35 32 88 NW14 29.26F WCI 26 NEWBURGH CLOUDY 34 32 93 N8 29.32F FOG WCI 27 MONTGOMERY CLOUDY 35 32 88 NE6 29.30F WCI 30 POUGHKEEPSIE CLOUDY 35 31 85 NW6 29.32F FOG WCI 30 ALBANY CLOUDY 33 28 81 N7 29.37S FOG WCI 27 $$ NJZ001-105-106-008-010-013-015-019>022-104-242100- NEW JERSEY CITY SKY/WX TMP DP RH WIND PRES REMARKS NEWARK/LIBERTY LGT RAIN 37 33 85 N15G24 29.29F WCI 28 TETERBORO CLOUDY 37 32 82 NW9G23 29.28F WCI 30 CALDWELL CLOUDY 37 31 78 CALM 29.30F MORRISTOWN CLOUDY 37 34 87 N6G15 29.31F WCI 33 SOMERVILLE CLOUDY 39 32 76 NW8 29.30F WCI 33 SUSSEX CLOUDY 38 30 73 NW6 29.30F WCI 33 ANDOVER N/A 37 32 82 N7 29.30F WCI 32 TRENTON CLOUDY 37 32 82 NW9 29.31S WCI 30 MILLVILLE CLOUDY 37 34 89 NW14G22 29.36R WCI 28 ATLANTIC CITY CLOUDY 36 34 92 NW17G28 29.31R WCI 26 WRIGHTSTOWN MIX PCPN 36 36 100 NW15 29.29F WCI 26 TOMS RIVER CLOUDY 36 34 93 NW10 29.29S WCI 28 BELMAR NOT AVBL $$ PAZ047>061-062-071-242100- EASTERN PENNSYLVANIA CITY SKY/WX TMP DP RH WIND PRES REMARKS PHILADELPHIA CLOUDY 38 34 85 NW12 29.37R WCI 30 ALLENTOWN CLOUDY 37 30 75 NW9 29.34F WCI 30 SCRANTON CLOUDY 34 28 79 NW12 29.35F HAZE WCI 25 $$ CTZ002-004>006-009-010-012-RIZ004-006-007-MAZ004-011-015-242100- SOUTHERN NEW ENGLAND IN CT CITY SKY/WX TMP DP RH WIND PRES REMARKS BRADLEY INTL LGT SNOW 33 29 85 N10 29.27F FOG WCI 25 HARTFORD CLOUDY 33 30 88 N12G18 29.27F FOG WCI 24 DANBURY CLOUDY 36 30 79 N9 29.27F WCI 29 WTRBRY/OXFORD CLOUDY 36 28 75 N13 29.25F WCI 27 BRIDGEPORT CLOUDY 37 34 89 NW9 29.25F WCI 30 MERIDEN CLOUDY 34 31 88 N13 29.26F FOG WCI 25 NEW HAVEN CLOUDY 35 32 88 N15 29.23F WCI 25 CHESTER CLOUDY 34 32 93 N7 29.21F FOG WCI 28 GROTON CLOUDY 34 34 100 N17G23 29.19F FOG WCI 23 WILLIMANTIC CLOUDY 35 32 88 N8 29.24F FOG WCI 29 IN RI CITY SKY/WX TMP DP RH WIND PRES REMARKS PROVIDENCE LGT RAIN 33 31 92 N16 29.22F FOG WCI 23 BLOCK ISLAND CLOUDY 36 30 80 N20G26 29.17F WCI 25 WESTERLY LGT RAIN 35 33 92 N12G22 29.20F FOG WCI 27 IN MA CITY SKY/WX TMP DP RH WIND PRES REMARKS BOSTON LGT RAIN 33 31 92 N14 29.30F FOG WCI 23 WORCESTER LGT SNOW 29 28 96 NE10G20 29.23F FOG WCI 20 WESTFIELD CLOUDY 33 28 81 N10 29.28F WCI 25 PROVINCETOWN CLOUDY 39 37 93 NE25G33 29.22F WCI 28 NANTUCKET LGT RAIN 41 39 93 N29G37 29.10R FOG $$ ANZ330-335-338-340-345-350-353-355-242100- COASTAL MARINE OBSERVATIONS STATION/POSITION TIME SKY/WX TEMP WIND PRES VSBY WAVE AIR SEA DIR/SP/G HT/PER (UTC) (F) (DEG/KT/KT) (MB) (MI) (FT/S) NY HARB ENTRANCE 2000 38 42 340/ 19/ 21 990.3 5/11 4S FIRE IS 2000 38 N/A 4/ 7 20S FIRE ISLAND 1900 41 990.1 6/ 6 23SW MTP 2000 N/A 8/ 7 HUDSON CANYON NOT AVBL EXECUTION ROCKS 2000 36 35 310/ 12/ 16 N/A WESTERN LI SOUND 2000 37 340/ 12/ 16 N/A 1/ 4 CENTRAL LI SOUND 2000 34 37 350/ 14/ 17 N/A 2/ 3 EASTERN LI SOUND NOT AVBL ROBBINS REEF 2000 37 320/ 12/ 15 990.4 $$ >>>>>>>>>>>>>>>>>>>>>>>>>>>> KEY <<<<<<<<<<<<<<<<<<<<<<<<<<< > < > SKY/WX - SKY CONDITION/PRESENT WEATHER < > TMP - TEMPERATURE IN FAHRENHEIT < > DP - DEWPOINT IN FAHRENHEIT < > RH - RELATIVE HUMIDITY IN PERCENT < > WIND - DIRECTION AND SPEED IN MPH < > PRES - MEAN SEA LEVEL PRESSURE IN INCHES OF HG < > WCI - WIND CHILL INDEX < > VSB - VISIBILITY IN MILES < > HX - HEAT INDEX < > TC - TEMPERATURE IN CELSIUS < > VRB - VARIABLE WIND DIRECTION < > < >>>>>>>>>>>>>>>>>>>>>>>>>>>> KEY <<<<<<<<<<<<<<<<<<<<<<<<<<<

USA.gov is the U.S. government's official web portal to all federal, state and local government web resources and services.